www.pogodaiklimat.ru
ПОГОДА в Уэллсвилле
Время
и дата
23:56 25.01
00:56 26.01
01:17 26.01
01:31 26.01
01:56 26.01
02:35 26.01
02:39 26.01
02:56 26.01
03:16 26.01
03:47 26.01
03:56 26.01
04:19 26.01
04:40 26.01
04:56 26.01
05:56 26.01
06:56 26.01
07:56 26.01
08:28 26.01
08:56 26.01
09:26 26.01
09:56 26.01
10:56 26.01
11:56 26.01
12:06 26.01
12:18 26.01
12:56 26.01
13:56 26.01
14:56 26.01
15:15 26.01
15:56 26.01
16:56 26.01
17:56 26.01
18:15 26.01
18:37 26.01
18:46 26.01
18:56 26.01
19:03 26.01
19:56 26.01
20:15 26.01
20:56 26.01
21:25 26.01
21:56 26.01
22:56 26.01
23:41 26.01
23:56 26.01
00:56 27.01
01:11 27.01
01:18 27.01
Ветер
(напр.,м/с)
Видим. Явления Облачность Т
(С)
Тd
(С)
f
(%)
Тe
(С)
Тes
(С)
Комфортность P
(гПа)
Po
(гПа)
Тmin
(С)
Tmax
(С)
R
(мм)
R24
(мм)
S
(см)
ЮЗ 4 10 км слабый дождь, дымка 10/10 210 m
[Ns]
+2.2 +0.6 89 -3 -3 998.3 922.0
ЮЗ 5
{10}
16 км 10/10 270 м +2.8 0.0 82 -2 -2 997.4 921.4 +1.7 +2.8 0.3
З 8
{14}
16 км 10/10 330 м +2.8 0.0 82 -4 -4 921.1
ЮЗ 4
{16}
16 км 10/10 480 м +2.8 -0.6 78 -2 -2 921.1
ЮЗ 5
{10}
16 км 8/8 570 м +2.8 -1.1 75 -2 -2 997.2 921.4
ЮЗ 6
{12}
4 км слабый снег 10/10 390 m
[Ns]
+1.7 -1.1 82 -4 -4 921.4
З 8
{13}
5 км слабый снег 10/10 330 m
[Ns]
+1.7 -1.1 82 -5 -5 921.4
ЮЗ 7
{16}
14 км 10/10 420 м +1.7 -2.2 75 -5 -5 997.4 921.4
З 5
{13}
8 км слабый снег 10/10 420 m
[Ns]
+1.1 -2.2 79 -5 -5 921.7
З 6
{13}
16 км 10/10 480 м +1.1 -2.8 75 -5 -5 921.7
ЮЗ 7
{13}
16 км 10/10 480 м +1.1 -2.8 75 -5 -5 997.7 921.7
З 6
{11}
8 км слабый снег 10/10 420 m
[Ns]
+0.6 -2.8 78 -6 -6 922.4
З 10
{16}
16 км слабый снег 10/10 360 m
[Ns]
+0.6 -4.4 69 -7 -7 922.0
З 8
{15}
14 км слабый снег 10/10 660 m
[Ns]
+0.6 -4.4 69 -6 -6 998.1 922.0
З 8
{14}
16 км 10/10 750 м 0.0 -5.6 66 -7 -7 999.0 923.0
З 10
{17}
16 км 10/10 630 м -0.6 -5.6 69 -9 -9 999.5 923.3 -0.6 +2.8 4.6
З 8
{14}
16 км 10/10 690 м -0.6 -5.6 69 -8 -8 1000.4 924.2
З 10
{14}
2 км слабый снег 10/10 540 m
[Ns]
-1.1 -5.0 75 -9 -9 925.2
СЗ 9
{17}
4 км слабый снег 10/10 480 m
[Ns]
-1.1 -5.6 71 -9 -9 1002.1 925.8
З 7
{14}
6 км слабый снег 10/10 600 m
[Ns]
-1.1 -5.6 71 -8 -8 926.1
З 9
{13}
6 км слабый снег 10/10 570 m
[Ns]
-1.1 -5.0 75 -9 -9 1002.7 926.4
З 5
{13}
10 км слабый снег 10/10 630 m
[Ns]
-1.1 -5.6 71 -7 -7 1003.6 927.4
З 7
{12}
6 км слабый снег 10/10 570 m
[Ns]
-1.1 -5.6 71 -8 -8 1004.1 927.7
З 6
{13}
4 км слабый снег 10/10 570 m
[Ns]
-1.1 -5.6 71 -8 -8 927.7
З 6
{13}
6 км слабый снег 10/10 570 m
[Ns]
-1.1 -5.0 75 -8 -8 927.7
З 6
{11}
10 км слабый снег 10/10 600 m
[Ns]
-1.1 -6.1 69 -8 -8 1004.3 928.0 -1.1 -0.6 0.3
З 8
{13}
11 км слабый снег 10/10 630 m
[Ns]
-1.1 -6.1 69 -9 -9 1005.1 928.6
З 6
{10}
4 км слабый снег 10/10 450 m
[Ns]
-1.7 -5.6 75 -9 -9 1006.5 929.6
З 6
{10}
5 км слабый снег 10/10 480 m
[Ns]
-1.7 -5.6 75 -9 -9 929.9
З 6
{11}
11 км слабый снег 10/10 570 m
[Ns]
-1.7 -6.1 72 -9 -9 1007.5 930.5
З 6
{9}
14 км слабый снег 10/10 630 m
[Ns]
-2.2 -6.7 71 -9 -9 1008.6 931.4
З 5
{9}
10 км слабый снег 10/5 510 m
[Ac Ns]
-2.2 -6.7 71 -9 -9 1009.5 932.1
З 5
{9}
11 км слабый снег 10/8 510 m
[Ac Ns]
-2.2 -6.7 71 -9 -9 932.4
З 6 10 км слабый снег 10/5 510 m
[Ac Ns]
-2.8 -6.1 78 -10 -10 932.7
З 5 16 км 10/8 450 m
[Ac]
-2.8 -6.7 74 -9 -9 932.7
З 6
{9}
16 км 8/8 510 m
[Ac]
-2.8 -6.7 74 -10 -10 1010.3 932.7 -2.8 -1.1
З 5
{9}
16 км 8/5 450 m
[Ac]
-2.8 -6.7 74 -9 -9 933.0
З 5 13 км 10/8 540 m
[Ac]
-2.8 -6.7 74 -9 -9 1010.8 933.3
З 5 8 км слабый снег 10/10 480 m
[Ns]
-2.8 -6.1 78 -9 -9 933.6
З 4 6 км слабый снег 10/10 480 m
[Ns]
-2.8 -6.1 78 -9 -9 1011.6 934.0
З 4 10 км слабый снег 10/10 360 m
[Ns]
-2.8 -6.1 78 -9 -9 934.3
З 3 14 км слабый снег 10/10 270 m
[Ns]
-2.8 -5.6 81 -8 -8 1012.2 934.6
З 3 16 км 10/10 330 м -2.8 -5.6 81 -8 -8 1012.4 934.9
нст 3 16 км 10/10 450 м -2.8 -6.1 78 -8 -8 935.2
З 3 16 км 10/10 540 м -2.8 -6.7 74 -8 -8 1012.8 935.2
ЮЗ 2 11 км слабый снег 10/10 450 m
[Ns]
-3.3 -6.7 77 -7 -7 1013.0 935.2 -3.3 -2.8
ЮЗ 3 14 км слабый снег 10/10 420 m
[Ns]
-3.3 -6.7 77 -8 -8 935.5
ЮЗ 3 14 км 10/10 540 м -3.3 -6.1 81 -8 -8 935.5
Местоположение метеостанции Wellsville Municipal Airport: широта 42.1075 долгота -77.9844 высота над уровнем моря 647 м.
В архиве по умолчанию представлена погода в Уэллсвилле за последние 1-2 суток. Обновление информации о фактической погоде в базе происходит ежечасно! Архивные данные за месяц целиком и за предыдущие месяцы Вы можете получить, выбрав интересующий диапазон дат из раскрывающегося списка и нажав кнопку "Ввод!".
Внимание! Архив погоды МЕТАР в базе сайта по станциям, не включенным в климатический монитор, хранится не более 60 дней. Нет смысла пытаться выбрать более раннюю дату.
*Определитесь, кто Вы:
Внимание! Время в таблицах - местное (без учета летнего времени). Для получения всемирного времени необходимо вычесть поправку, которая равна -5 ч.
Смотрите также архив погоды в соседних городах и на ближайших метеорологических станциях:
Партнеры нашего сайта:      
Пояснения к столбцам:
  • Ветер - указаны скорость ветра в м/с - средняя за 10 мин, порывы в срок и между сроками (в фигурных скобках) и направление, откуда дует ветер: С - северный,
  • СВ - северо-восточный, В - восточный, ЮВ - юго-восточный, Ю - южный, ЮЗ - юго-западный, З - западный, СЗ - северо-западный.
  • Видимость - горизонтальная дальность видимости в метрах или километрах. При видимости от 1 до 10 км при отсутствии осадков обычно наблюдается дымка, при ухудшении видимости до 1 км и менее - туман. В сухую погоду видимость может ухудшаться дымом, пылью или мглою.
  • Явления - указаны атмосферные явления, наблюдавшиеся в срок или в последний час перед сроком; фигурными скобками обозначены явления, наблюдавшиеся между сроками (за 1-3 часа до срока); квадратными скобками обозначены град или гололедные отложения с указанием их диаметра в мм.
  • Облачность - указаны через наклонную черту общая и нижняя облачность в баллах и высота нижней границы облаков в метрах; квадратными скобками обозначены формы облаков: Ci - перистые, Cs - перисто-слоистые, Cc - перисто-кучевые, Ac - высококучевые, As - высокослоистые, Sc - слоисто-кучевые, Ns - слоисто-дождевые, Cu - кучевые, Cb - кучево-дождевые. Подробнее классификацию облаков см. в Атласе облаков (PDF).
  • T - Температура воздуха - температура, измеренная на высоте 2 м над землей.
  • Td - Температура точки росы - температура, при понижении до которой содержащийся в воздухе водяной пар достигнет насыщения.
  • f - Относительная влажность воздуха - влажноcть воздуха, измеренная на высоте 2 м над землей.
  • Te - Эффективная температура - температура, которую ощущает одетый по сезону человек в тени. Характеристика душности погоды. При расчете учитывается влияние влажности воздуха и скорости ветра на теплоощущения человека.
  • Tes - Эффективная температура на солнце - температура, которую ощущает человек, с поправкой на солнечный нагрев. Характеристика знойности погоды. Зависит от высоты солнца над горизонтом, облачности и скорости ветра. Ночью, в пасмурную погоду, а также при ветре 12 м/с и более поправка равна нулю.
  • P - Атмосферное давление - приведенное к уровню моря атмосферное давление.
  • Po - Атмосферное давление - измеренное на уровне метеостанции атмосферное давление.
  • Tmin - Минимальная температура - минимум температуры воздуха на высоте 2 м над землей.
  • Tmax - Максимальная температура - максимум температуры воздуха на высоте 2 м над землей.
  • R - Количество осадков - Количество выпавших осадков за период времени, мм. При наведении курсора мыши на число - период времени, за который выпало указанное количество осадков.
  • R24 - Количество осадков - Количество выпавших осадков за 24 часа, мм.
  • S - Снежный покров - Высота снежного покрова, см. При наведении курсора мыши на число - состояние снежного покрова и степень покрытия местности в баллах.